Temp
-14 -14 -15 -15 -15 -14 -14 -14 -14 -14 -14 -14 -14 -14 -14 -14 -14 -13 -13 -13 -13 -13 -13 -13 -12 -12 -12 -12 -12 -12 -12 -12 -12 -12 -12 -12 -12 -12 -13 -13 -13 -13 -13
-14 -14 -15 -15 -15 -15 -15 -14 -14 -14 -14 -14 -14 -14 -14 -14 -14 -14 -13 -13 -13 -13 -13 -13 -12 -13 -13 -13 -13 -13 -13 -13 -12 -12 -12 -12 -12 -13 -13 -13 -13 -13 -13
-15 -15 -15 -15 -15 -15 -15 -15 -15 -15 -15 -15 -15 -15 -15 -15 -14 -14 -14 -14 -14 -14 -13 -13 -13 -13 -13 -13 -13 -13 -13 -13 -13 -13 -13 -13 -13 -13 -13 -13 -13 -13 -13
-15 -15 -15 -15 -15 -15 -15 -15 -15 -15 -15 -15 -15 -15 -15 -15 -14 -14 -14 -14 -14 -14 -14 -14 -14 -14 -14 -14 -14 -14 -14 -14 -14 -14 -14 -14 -14 -14 -14 -14 -14 -14 -14
-15 -16 -16 -16 -16 -16 -16 -16 -16 -16 -16 -16 -16 -16 -16 -16 -16 -15 -15 -15 -15 -16 -15 -15 -15 -15 -15 -15 -15 -15 -15 -15 -15 -15 -15 -15 -15 -15 -15 -15 -15 -14 -14
-16 -16 -17 -17 -17 -18 -18 -18 -17 -17 -17 -17 -16 -17 -16 -17 -16 -16 -16 -16 -16 -16 -17 -17 -17 -17 -17 -17 -17 -17 -17 -17 -16 -16 -16 -16 -16 -16 -16 -16 -16 -15 -15
-17 -18 -17 -18 -18 -18 -18 -18 -18 -17 -17 -17 -17 -17 -17 -17 -17 -17 -17 -17 -17 -17 -18 -18 -18 -18 -18 -18 -18 -18 -18 -18 -18 -17 -17 -16 -16 -16 -16 -16 -16 -16 -16
-16 -17 -17 -18 -18 -18 -18 -18 -18 -18 -18 -18 -18 -18 -18 -18 -18 -18 -18 -18 -18 -18 -18 -18 -18 -18 -18 -18 -18 -18 -18 -18 -18 -18 -18 -18 -18 -18 -18 -17 -17 -17 -17
-17 -17 -17 -17 -18 -18 -18 -18 -18 -18 -18 -18 -19 -18 -18 -18 -18 -18 -19 -18 -18 -18 -18 -19 -19 -19 -19 -19 -19 -19 -19 -19 -18 -18 -18 -18 -18 -18 -18 -18 -18 -18 -17
-18 -18 -18 -18 -18 -18 -18 -18 -18 -19 -19 -19 -19 -19 -19 -19 -19 -19 -19 -19 -19 -19 -19 -19 -19 -19 -19 -19 -19 -19 -19 -19 -19 -19 -19 -19 -19 -19 -18 -18 -18 -18 -18
-18 -18 -18 -19 -19 -19 -19 -19 -19 -19 -19 -19 -19 -19 -19 -19 -19 -19 -19 -19 -19 -19 -19 -19 -20 -20 -20 -20 -20 -20 -20 -20 -20 -20 -20 -20 -20 -20 -19 -19 -19 -18 -18
-18 -19 -19 -19 -19 -19 -19 -19 -19 -19 -19 -20 -20 -20 -20 -20 -20 -20 -20 -20 -20 -20 -20 -20 -21 -21 -21 -20 -21 -21 -21 -21 -21 -21 -21 -21 -21 -21 -20 -20 -19 -19 -18
-18 -19 -19 -19 -19 -19 -20 -20 -20 -20 -20 -20 -20 -20 -20 -20 -20 -20 -20 -20 -20 -20 -21 -21 -21 -21 -21 -21 -21 -21 -21 -21 -21 -21 -21 -21 -21 -21 -21 -20 -20 -19 -19
-19 -19 -19 -19 -20 -20 -20 -20 -20 -20 -20 -20 -21 -21 -21 -21 -21 -21 -20 -21 -21 -21 -21 -21 -22 -22 -22 -22 -21 -21 -21 -21 -21 -21 -21 -21 -21 -21 -21 -21 -21 -20 -19
-18 -19 -20 -20 -20 -20 -20 -20 -20 -21 -21 -21 -21 -21 -21 -21 -21 -21 -21 -21 -22 -22 -22 -22 -22 -22 -22 -22 -21 -21 -21 -21 -21 -21 -21 -21 -21 -21 -21 -21 -22 -21 -21
-19 -19 -20 -20 -20 -20 -21 -21 -21 -21 -21 -21 -21 -21 -21 -21 -21 -22 -22 -22 -22 -22 -22 -22 -22 -22 -22 -22 -22 -21 -21 -21 -21 -21 -21 -21 -21 -21 -21 -21 -21 -21 -22
-20 -20 -20 -20 -21 -21 -21 -21 -21 -22 -22 -22 -22 -22 -22 -22 -22 -22 -22 -22 -22 -22 -23 -23 -23 -23 -22 -22 -22 -22 -22 -21 -21 -21 -21 -21 -21 -21 -21 -21 -21 -21 -21
-20 -20 -21 -21 -21 -22 -21 -21 -22 -22 -22 -22 -22 -22 -22 -23 -23 -22 -22 -22 -22 -23 -23 -23 -23 -23 -23 -23 -23 -22 -22 -22 -22 -21 -21 -21 -21 -21 -21 -21 -21 -21 -21
-20 -21 -21 -22 -22 -22 -22 -22 -22 -22 -23 -23 -23 -23 -23 -23 -23 -23 -23 -23 -23 -23 -23 -23 -23 -23 -23 -23 -23 -23 -22 -22 -22 -22 -22 -22 -22 -22 -21 -21 -21 -21 -21
-21 -21 -22 -23 -22 -22 -23 -23 -23 -23 -23 -23 -23 -23 -24 -23 -23 -23 -23 -23 -23 -23 -24 -24 -24 -24 -24 -23 -23 -23 -23 -23 -23 -23 -22 -22 -22 -22 -22 -22 -22 -22 -21
-22 -22 -22 -22 -22 -23 -23 -23 -23 -23 -23 -23 -23 -24 -24 -24 -23 -23 -23 -23 -23 -24 -24 -24 -24 -24 -23 -23 -23 -23 -23 -23 -23 -23 -23 -23 -23 -22 -22 -22 -22 -22 -22
-23 -22 -23 -22 -23 -23 -23 -23 -23 -23 -23 -23 -24 -24 -24 -24 -24 -24 -23 -23 -24 -24 -24 -24 -23 -23 -23 -23 -23 -23 -23 -23 -23 -23 -23 -23 -23 -23 -22 -22 -22 -22 -22
-23 -23 -23 -23 -23 -23 -24 -24 -24 -24 -24 -24 -24 -24 -24 -24 -24 -24 -24 -24 -24 -24 -24 -24 -23 -23 -23 -23 -23 -23 -23 -24 -24 -24 -23 -23 -23 -23 -23 -23 -23 -22 -22
-23 -23 -23 -23 -23 -24 -24 -24 -24 -24 -24 -24 -24 -25 -24 -24 -24 -24 -24 -24 -24 -24 -24 -23 -23 -23 -23 -24 -24 -24 -24 -24 -24 -24 -24 -24 -24 -24 -24 -23 -23 -23 -23
-23 -23 -23 -23 -23 -23 -24 -24 -25 -24 -24 -25 -25 -25 -25 -25 -25 -24 -24 -24 -24 -24 -24 -23 -23 -23 -24 -24 -24 -24 -24 -24 -24 -25 -24 -24 -24 -24 -24 -24 -24 -24 -24
-23 -24 -24 -24 -24 -25 -25 -25 -25 -25 -24 -25 -25 -25 -25 -25 -25 -25 -25 -24 -24 -24 -24 -24 -24 -24 -24 -24 -24 -24 -24 -25 -25 -25 -25 -25 -25 -24 -24 -24 -25 -25 -25
Height
5765 5764 5763 5763 5763 5763 5764 5764 5764 5764 5764 5764 5765 5765 5765 5765 5764 5764 5763 5763 5763 5763 5762 5763 5763 5763 5763 5762 5761 5761 5761 5761 5762 5763 5764 5765 5766 5766 5767 5768 5769 5771 5773
5756 5756 5756 5756 5756 5756 5756 5756 5756 5755 5755 5755 5756 5756 5756 5756 5756 5755 5754 5753 5752 5752 5752 5752 5752 5751 5751 5751 5750 5750 5750 5750 5750 5751 5752 5753 5754 5755 5756 5758 5759 5761 5763
5747 5747 5747 5747 5748 5748 5748 5748 5748 5748 5747 5747 5746 5746 5746 5746 5745 5744 5743 5742 5741 5740 5739 5739 5739 5739 5739 5738 5738 5738 5737 5737 5738 5738 5739 5740 5741 5742 5744 5745 5747 5748 5751
5737 5737 5737 5738 5738 5738 5738 5739 5740 5739 5739 5738 5738 5737 5736 5735 5734 5733 5733 5732 5731 5730 5729 5728 5727 5726 5726 5725 5725 5725 5725 5724 5724 5725 5726 5726 5727 5728 5730 5731 5732 5736 5737
5727 5728 5728 5728 5728 5728 5728 5729 5730 5729 5729 5728 5727 5726 5725 5725 5724 5723 5722 5722 5720 5719 5717 5716 5715 5714 5714 5713 5712 5712 5711 5711 5711 5711 5711 5712 5712 5712 5713 5716 5718 5719 5724
5717 5717 5718 5718 5718 5718 5718 5719 5720 5719 5719 5718 5717 5717 5717 5715 5714 5713 5712 5710 5708 5707 5704 5703 5702 5701 5701 5700 5698 5698 5697 5696 5696 5696 5696 5696 5696 5696 5697 5698 5701 5704 5706
5704 5705 5706 5708 5708 5708 5708 5708 5708 5708 5709 5709 5709 5708 5707 5705 5704 5702 5701 5699 5697 5695 5693 5691 5690 5689 5688 5687 5685 5684 5681 5680 5680 5680 5680 5680 5679 5679 5680 5682 5684 5687 5691
5694 5695 5695 5696 5696 5696 5697 5698 5700 5701 5700 5700 5699 5697 5696 5696 5693 5692 5690 5688 5686 5683 5681 5680 5678 5677 5675 5674 5671 5669 5667 5665 5664 5663 5662 5662 5662 5662 5662 5663 5665 5669 5673
5685 5685 5686 5687 5688 5688 5689 5690 5690 5690 5690 5689 5687 5687 5685 5685 5683 5681 5679 5677 5675 5672 5670 5669 5667 5665 5663 5660 5658 5655 5653 5652 5651 5650 5648 5647 5646 5646 5646 5646 5647 5650 5655
5674 5675 5676 5677 5678 5678 5678 5679 5679 5678 5678 5678 5678 5677 5676 5674 5672 5671 5668 5665 5663 5662 5660 5657 5655 5653 5651 5649 5647 5646 5644 5643 5640 5637 5636 5634 5633 5632 5632 5631 5632 5633 5637
5664 5664 5665 5666 5666 5667 5667 5667 5668 5668 5668 5668 5667 5666 5665 5663 5662 5660 5658 5656 5653 5652 5650 5648 5646 5644 5642 5642 5640 5638 5634 5631 5629 5626 5624 5622 5620 5619 5618 5618 5617 5619 5622
5655 5657 5658 5658 5658 5659 5659 5659 5658 5658 5658 5657 5657 5656 5654 5653 5651 5650 5648 5646 5644 5642 5641 5639 5638 5636 5635 5633 5630 5628 5625 5622 5620 5617 5615 5613 5610 5608 5607 5606 5605 5605 5607
5646 5648 5649 5650 5650 5650 5650 5650 5650 5649 5649 5648 5646 5645 5644 5642 5641 5639 5638 5636 5634 5633 5632 5631 5629 5628 5626 5624 5622 5620 5618 5616 5614 5611 5608 5605 5603 5600 5598 5596 5594 5593 5594
5636 5638 5639 5639 5639 5641 5641 5641 5640 5640 5639 5638 5637 5636 5635 5633 5631 5629 5628 5626 5625 5624 5623 5623 5622 5620 5618 5616 5614 5613 5611 5610 5608 5605 5602 5599 5597 5594 5591 5588 5585 5582 5582
5624 5626 5627 5629 5629 5630 5631 5631 5631 5630 5630 5629 5628 5626 5625 5623 5621 5620 5618 5617 5616 5616 5616 5615 5614 5612 5610 5608 5607 5606 5605 5603 5601 5598 5595 5593 5590 5588 5585 5582 5579 5576 5572
5615 5616 5618 5619 5619 5620 5621 5621 5621 5621 5621 5619 5617 5616 5615 5613 5612 5610 5610 5609 5608 5609 5608 5608 5606 5605 5603 5601 5600 5599 5598 5596 5594 5591 5589 5586 5584 5582 5579 5576 5573 5570 5567
5605 5606 5608 5610 5609 5610 5612 5612 5612 5612 5611 5610 5609 5607 5605 5604 5602 5601 5601 5601 5601 5602 5601 5600 5599 5598 5596 5594 5593 5592 5590 5588 5586 5584 5582 5579 5577 5575 5572 5570 5568 5565 5562
5595 5596 5598 5601 5601 5602 5602 5603 5603 5603 5602 5601 5600 5598 5596 5595 5593 5592 5592 5593 5594 5594 5594 5593 5592 5590 5588 5587 5586 5584 5583 5581 5579 5576 5573 5571 5569 5567 5565 5563 5561 5559 5556
5585 5587 5588 5591 5592 5593 5594 5595 5594 5594 5593 5592 5590 5589 5588 5586 5585 5584 5584 5585 5586 5586 5586 5585 5584 5583 5581 5580 5579 5577 5575 5572 5570 5568 5565 5562 5560 5558 5557 5555 5554 5551 5548
5575 5578 5580 5579 5582 5584 5585 5586 5586 5586 5585 5583 5581 5580 5579 5578 5576 5575 5576 5577 5578 5579 5579 5578 5577 5576 5574 5573 5571 5569 5567 5564 5562 5559 5556 5554 5551 5549 5548 5546 5545 5543 5541
5565 5568 5569 5571 5575 5575 5576 5577 5577 5577 5577 5575 5574 5573 5571 5569 5568 5567 5568 5569 5570 5571 5571 5570 5569 5568 5566 5565 5563 5561 5558 5556 5553 5550 5547 5545 5542 5540 5538 5537 5535 5533 5531
5556 5557 5561 5564 5567 5567 5568 5568 5568 5568 5568 5567 5566 5565 5564 5561 5560 5560 5560 5561 5562 5563 5563 5562 5561 5559 5558 5557 5555 5552 5549 5546 5544 5540 5537 5535 5533 5530 5528 5526 5524 5522 5520
5547 5552 5555 5553 5556 5557 5558 5558 5558 5558 5559 5558 5558 5558 5556 5553 5552 5552 5552 5553 5554 5554 5554 5553 5552 5551 5550 5549 5546 5543 5539 5536 5533 5530 5527 5525 5522 5520 5517 5515 5513 5510 5508
5539 5542 5543 5543 5545 5547 5547 5548 5548 5549 5550 5549 5550 5549 5547 5546 5544 5544 5544 5545 5546 5545 5544 5544 5543 5541 5540 5538 5536 5533 5530 5527 5524 5520 5517 5513 5510 5508 5506 5503 5500 5498 5495
5529 5531 5531 5534 5535 5535 5536 5537 5538 5539 5540 5540 5540 5540 5538 5537 5536 5535 5535 5536 5536 5535 5534 5533 5532 5531 5528 5526 5523 5521 5518 5515 5512 5509 5506 5502 5499 5496 5493 5490 5486 5483 5480
5521 5521 5521 5523 5525 5525 5526 5527 5528 5529 5530 5530 5531 5531 5530 5528 5527 5526 5525 5526 5526 5525 5524 5523 5521 5519 5518 5516 5513 5510 5507 5504 5501 5497 5493 5490 5487 5484 5480 5476 5472 5468 5465
Wind_Speed
43 41 39 38 39 38 38 37 37 36 35 35 36 36 36 37 38 37 36 37 37 37 38 38 39 39 40 42 43 44 46 48 49 48 48 48 47 46 45 45 43 42 41
42 41 39 39 38 39 39 39 37 36 37 38 38 39 40 41 41 40 40 40 41 41 42 43 44 45 45 46 46 47 48 50 51 52 53 53 53 52 50 48 48 47 45
42 42 40 39 40 40 39 38 38 39 39 39 40 42 43 44 44 44 44 45 45 45 46 45 46 47 48 48 49 50 52 53 55 56 57 57 57 56 56 55 52 52 51
40 37 38 38 39 39 40 40 40 41 41 42 43 45 47 47 47 48 48 49 48 47 46 46 48 49 49 49 50 51 52 53 55 57 60 60 60 60 60 59 59 57 57
43 44 45 45 46 41 40 41 43 43 44 45 47 49 49 50 50 51 51 49 48 48 46 46 46 47 49 50 51 53 54 55 57 60 61 61 62 63 63 62 62 63 62
41 41 43 44 43 42 42 43 44 45 48 49 50 51 51 50 51 51 50 49 45 43 42 43 44 46 48 49 51 52 54 55 57 60 62 62 62 62 62 63 63 63 66
48 47 50 50 49 48 48 49 50 52 51 51 50 51 50 49 50 49 46 43 42 42 42 43 44 46 48 49 50 51 52 54 55 57 58 63 66 67 64 63 62 62 63
42 42 42 43 45 46 47 48 49 49 48 49 47 45 47 49 48 44 42 40 40 40 40 41 42 43 45 46 47 48 49 49 50 51 52 54 59 62 63 64 63 63 62
42 42 46 48 47 47 47 47 46 45 44 42 43 46 47 46 44 41 39 39 39 39 40 40 41 42 43 44 44 44 44 44 45 45 46 47 48 50 53 57 60 63 65
39 38 36 35 37 37 38 39 38 38 39 43 45 44 43 41 39 38 38 37 37 38 38 40 41 42 41 40 40 41 41 41 42 43 43 44 45 46 49 50 51 54 58
37 37 39 38 37 38 36 37 39 41 41 41 41 41 40 38 37 36 35 37 38 39 40 41 41 38 37 36 36 37 38 38 38 37 37 38 40 42 44 47 50 52 50
35 35 36 37 38 39 39 38 37 38 40 39 38 37 36 36 35 36 37 38 39 40 41 38 34 34 33 34 34 33 31 29 29 31 32 33 34 35 36 39 44 47 50
29 31 33 35 35 35 36 37 37 37 36 36 37 36 35 35 36 37 38 39 40 39 34 31 30 31 32 32 30 27 25 25 25 26 27 28 29 30 32 34 38 41 44
25 26 29 31 32 33 35 35 36 35 35 35 35 35 35 36 37 37 38 39 36 32 28 29 30 30 30 27 25 24 23 23 23 22 23 24 24 26 27 29 28 34 40
27 31 32 31 31 33 34 35 35 34 34 35 36 36 36 36 37 37 37 34 31 27 27 28 29 28 27 24 24 24 23 23 23 23 23 24 24 24 24 26 26 26 28
33 33 34 34 32 34 34 35 35 36 37 36 36 35 36 37 37 35 32 30 27 26 26 27 27 26 25 24 25 25 25 25 25 25 26 26 26 26 25 24 24 24 25
32 32 34 35 31 33 35 34 36 36 35 35 35 35 36 36 35 32 30 28 25 25 26 27 25 24 23 23 25 26 26 27 27 27 28 28 28 28 27 27 27 26 25
30 31 32 33 32 32 34 34 34 33 33 33 34 35 36 34 32 31 29 26 24 25 27 26 22 22 21 23 25 27 28 29 29 29 29 30 29 29 28 28 29 29 29
28 29 31 30 31 31 32 32 30 31 32 33 35 35 33 31 31 29 26 24 24 26 25 23 21 20 21 23 26 27 29 30 30 30 31 31 31 31 30 29 29 30 30
28 29 29 25 27 30 31 31 30 31 33 34 34 32 31 31 30 27 25 24 26 26 25 22 20 20 21 24 27 29 30 31 31 31 31 31 32 31 30 30 31 30 30
26 28 26 27 30 30 33 32 31 30 32 32 31 28 30 30 28 26 25 26 27 26 24 20 21 22 22 25 28 29 31 31 31 31 31 32 32 31 31 32 32 32 32
24 29 32 34 38 35 31 33 35 32 32 31 27 29 28 28 27 27 26 27 27 25 23 22 22 24 25 28 30 31 32 33 32 33 33 33 33 33 34 35 35 34 34
32 34 42 44 41 33 31 35 37 32 30 30 30 30 28 28 28 28 28 29 28 26 25 24 25 27 28 30 31 33 34 34 35 36 35 35 35 35 36 37 38 38 39
35 41 42 29 38 39 38 39 33 37 36 34 32 30 29 30 29 30 31 31 31 29 27 28 29 30 31 32 34 35 36 36 37 37 38 39 39 39 39 40 41 42 42
34 37 41 40 35 44 37 35 32 35 36 33 30 30 30 31 32 32 33 34 34 32 31 32 32 33 34 36 37 39 40 40 40 40 40 41 42 42 43 43 45 45 46
34 35 34 35 38 39 38 39 38 37 36 33 30 31 32 34 34 34 35 36 38 36 35 35 35 36 37 37 39 42 43 43 43 43 44 43 44 44 45 46 47 49 50
Wind_Direction
271 271 272 264 263 263 265 265 264 265 266 267 269 271 272 271 270 270 273 275 277 279 280 281 280 279 278 275 274 272 272 272 271 269 266 265 265 263 262 262 262 261 259
268 268 268 265 265 265 263 263 264 265 265 267 269 270 270 270 271 274 277 280 280 280 282 283 283 282 280 276 273 272 270 268 267 267 266 264 263 262 261 259 260 260 260
267 267 266 266 267 266 265 264 265 267 269 271 271 273 275 276 278 281 283 283 283 284 285 285 285 283 280 277 273 270 269 267 264 264 263 263 261 260 260 259 256 257 257
265 266 265 264 264 264 264 264 265 267 268 269 271 273 275 278 280 281 282 283 283 283 283 283 283 282 279 277 274 272 268 267 266 263 262 261 261 259 257 257 257 254 254
260 261 261 263 260 258 261 262 265 268 270 271 272 273 275 278 280 282 283 282 282 283 283 283 283 282 280 278 274 271 269 269 267 266 263 262 261 261 258 256 254 255 254
257 257 258 256 259 263 263 263 264 266 267 267 269 273 277 281 285 285 286 287 287 287 287 286 285 284 281 279 278 276 275 272 269 267 267 268 268 266 263 261 257 253 253
251 250 251 253 252 251 254 257 258 260 265 270 274 276 280 284 286 288 288 288 289 290 290 290 288 286 284 283 281 279 277 277 275 273 270 268 267 268 266 264 262 260 254
261 262 261 260 260 260 261 264 268 271 273 274 277 283 285 286 286 289 290 290 290 290 289 288 287 285 283 282 282 282 282 281 279 277 274 270 266 265 265 263 260 258 256
272 274 267 267 270 270 269 269 270 271 274 281 284 285 286 286 287 289 289 289 290 291 290 289 288 287 287 287 287 285 284 283 281 278 276 273 271 268 266 265 263 260 255
273 273 271 272 274 276 274 274 277 280 282 282 283 282 283 285 287 289 291 292 292 292 292 291 290 289 288 287 285 284 283 284 284 282 280 277 273 270 266 264 262 261 257
274 278 280 282 282 282 282 280 281 281 280 278 279 282 283 287 289 291 292 292 293 293 291 289 287 284 283 283 283 285 287 286 286 287 286 284 279 273 269 265 262 259 258
268 270 273 275 278 279 279 279 277 277 276 277 279 281 285 288 290 292 293 292 290 289 287 284 280 283 283 283 284 286 288 291 295 296 296 294 292 286 279 273 266 262 257
262 265 270 274 276 277 277 275 273 274 276 279 283 285 287 288 291 292 291 289 288 287 283 277 280 282 282 282 282 285 288 293 295 297 300 298 296 294 290 284 276 269 262
265 269 270 275 278 279 277 277 276 276 279 280 281 283 286 289 290 290 289 287 286 281 275 277 279 280 281 281 284 287 289 291 295 300 304 305 304 298 301 291 296 279 267
270 276 279 277 277 281 282 282 278 279 279 280 281 284 286 288 289 288 287 284 278 271 274 276 277 278 279 280 282 285 289 293 298 302 306 309 311 313 310 306 299 305 291
266 271 276 277 278 281 281 280 279 279 280 281 283 284 284 287 286 285 282 277 267 267 272 274 276 278 280 282 285 288 291 293 295 299 302 305 306 309 312 316 315 309 307
265 268 273 275 276 279 276 276 277 279 281 280 280 281 285 286 285 282 276 269 261 266 270 273 277 283 287 291 293 294 295 296 297 297 297 300 301 302 304 309 313 315 316
267 269 273 276 275 273 276 277 277 277 279 279 282 286 288 285 282 277 271 259 261 266 269 272 279 285 290 293 294 293 293 293 294 296 298 299 299 299 300 301 305 306 310
270 269 270 272 276 280 282 279 275 275 277 280 285 287 285 283 281 273 260 256 260 264 267 271 278 284 288 291 293 296 297 298 297 295 295 296 297 297 296 295 300 302 303
268 269 267 269 278 277 275 273 273 277 280 285 286 282 283 283 278 265 253 255 258 262 265 270 277 282 287 293 297 299 299 297 297 296 295 294 293 293 294 293 296 298 299
264 267 266 262 272 279 273 267 271 276 284 288 281 278 286 282 273 258 254 256 259 261 264 269 277 285 294 298 301 302 300 299 296 295 293 293 293 293 292 292 296 298 299
267 269 265 264 276 277 263 271 267 278 284 285 274 274 292 285 270 256 254 255 258 259 262 272 281 288 293 295 300 303 301 300 300 299 297 295 293 292 293 294 295 296 299
256 261 253 266 267 261 261 263 268 278 286 274 272 276 289 290 272 258 254 254 254 257 265 275 280 286 290 294 299 302 305 304 302 300 297 296 293 292 293 294 295 296 298
251 255 253 257 248 261 258 267 273 276 279 271 272 277 284 291 280 262 257 255 254 259 266 272 278 284 290 296 300 302 305 304 302 300 297 296 294 294 294 294 295 295 296
258 254 254 253 247 254 269 265 274 274 271 266 270 279 284 289 286 271 261 257 256 260 266 272 278 284 289 294 300 303 304 303 302 299 296 294 292 292 294 295 296 297 297
262 260 259 261 255 261 259 266 272 273 266 261 269 279 284 286 285 278 266 262 263 264 266 271 277 281 286 292 297 299 300 300 299 297 296 293 291 293 294 295 296 297 298